| time (UTC) | temp F | wind direction | speed MPH | gust MPH | rain 1hr in | rain 24hr in | rain mn in | humidity % | barometer mb |
| 20260510105731 | 71 | 139 | 3.0 | 4.0 | 0.00 | 0.00 | 0.00 | 98 | 1009.4 |
| 20260510104731 | 71 | 140 | 3.0 | 4.0 | 0.00 | 0.00 | 0.00 | 98 | 1009.3 |
| 20260510104234 | 71 | 130 | 3.0 | 4.0 | 0.00 | 0.00 | 0.00 | 98 | 1009.2 |
| 20260510103731 | 71 | 148 | 3.0 | 4.0 | 0.00 | 0.00 | 0.00 | 98 | 1009.0 |
| 20260510103235 | 71 | 143 | 2.0 | 4.0 | 0.00 | 0.00 | 0.00 | 98 | 1009.1 |
| 20260510102731 | 71 | 146 | 2.0 | 4.0 | 0.00 | 0.00 | 0.00 | 98 | 1009.1 |
| 20260510102235 | 71 | 100 | 2.0 | 3.0 | 0.00 | 0.00 | 0.00 | 98 | 1009.2 |
| 20260510101728 | 71 | 146 | 3.0 | 4.0 | 0.00 | 0.00 | 0.00 | 98 | 1009.2 |
| 20260510101233 | 71 | 165 | 2.0 | 4.0 | 0.00 | 0.00 | 0.00 | 98 | 1009.2 |
| 20260510100716 | 71 | 140 | 2.0 | 3.0 | 0.00 | 0.00 | 0.00 | 98 | 1009.2 |
| 20260510095715 | 71 | 144 | 2.0 | 3.0 | 0.00 | 0.00 | 0.00 | 98 | 1009.2 |
| 20260510095215 | 71 | 146 | 2.0 | 3.0 | 0.00 | 0.00 | 0.00 | 98 | 1009.1 |
| 20260510094714 | 71 | 145 | 2.0 | 2.0 | 0.00 | 0.00 | 0.00 | 98 | 1009.1 |
| 20260510093715 | 71 | 152 | 2.0 | 4.0 | 0.00 | 0.00 | 0.00 | 97 | 1009.0 |
| 20260510093215 | 71 | 286 | 3.0 | 4.0 | 0.00 | 0.00 | 0.00 | 97 | 1009.1 |
| 20260510092715 | 71 | 154 | 3.0 | 4.0 | 0.00 | 0.00 | 0.00 | 97 | 1009.2 |
| 20260510092201 | 71 | 148 | 2.0 | 4.0 | 0.00 | 0.00 | 0.00 | 97 | 1009.2 |
| 20260510091701 | 71 | 141 | 2.0 | 3.0 | 0.00 | 0.00 | 0.00 | 97 | 1009.3 |
| 20260510091201 | 71 | 124 | 1.0 | 2.0 | 0.00 | 0.00 | 0.00 | 97 | 1009.3 |
| 20260510090701 | 71 | 103 | 1.0 | 2.0 | 0.00 | 0.00 | 0.00 | 97 | 1009.2 |
| 20260510090201 | 71 | 86 | 1.0 | 2.0 | 0.00 | 0.00 | 0.00 | 97 | 1009.2 |
| 20260510085701 | 71 | 144 | 1.0 | 3.0 | 0.00 | 0.00 | 0.00 | 97 | 1009.1 |
| 20260510085201 | 71 | 142 | 2.0 | 3.0 | 0.00 | 0.00 | 0.00 | 97 | 1009.1 |
| 20260510084701 | 71 | 164 | 2.0 | 3.0 | 0.00 | 0.00 | 0.00 | 97 | 1009.1 |
| 20260510084201 | 71 | 190 | 2.0 | 3.0 | 0.00 | 0.00 | 0.00 | 97 | 1009.1 |
| 20260510083701 | 71 | 224 | 2.0 | 3.0 | 0.00 | 0.00 | 0.00 | 97 | 1009.1 |
| 20260510083202 | 72 | 185 | 2.0 | 3.0 | 0.00 | 0.00 | 0.00 | 96 | 1009.1 |
| 20260510082701 | 72 | 209 | 1.0 | 3.0 | 0.00 | 0.00 | 0.00 | 96 | 1009.0 |
| 20260510082202 | 72 | 183 | 1.0 | 4.0 | 0.00 | 0.00 | 0.00 | 96 | 1009.2 |
| 20260510081701 | 72 | 188 | 2.0 | 4.0 | 0.00 | 0.00 | 0.00 | 96 | 1009.2 |
| 20260510081159 | 73 | 187 | 2.0 | 4.0 | 0.00 | 0.00 | 0.00 | 96 | 1009.2 |
| 20260510080159 | 73 | 176 | 2.0 | 3.0 | 0.00 | 0.00 | 0.00 | 96 | 1009.4 |
| 20260510075159 | 72 | 104 | 2.0 | 2.0 | 0.00 | 0.00 | 0.00 | 96 | 1009.6 |
| 20260510074659 | 72 | 158 | 1.0 | 2.0 | 0.00 | 0.00 | 0.00 | 96 | 1009.7 |
| 20260510074159 | 72 | 70 | 1.0 | 3.0 | 0.00 | 0.00 | 0.00 | 96 | 1009.7 |
| 20260510073659 | 72 | 168 | 1.0 | 3.0 | 0.00 | 0.00 | 0.00 | 96 | 1009.7 |
| 20260510073200 | 72 | 148 | 1.0 | 3.0 | 0.00 | 0.00 | 0.00 | 96 | 1009.8 |
| 20260510072200 | 72 | 157 | 1.0 | 3.0 | 0.00 | 0.00 | 0.00 | 96 | 1009.8 |
| 20260510071700 | 71 | 102 | 1.0 | 2.0 | 0.00 | 0.00 | 0.00 | 96 | 1009.8 |
| 20260510071200 | 71 | 164 | 1.0 | 3.0 | 0.00 | 0.00 | 0.00 | 96 | 1009.7 |
| 20260510070156 | 71 | 142 | 1.0 | 2.0 | 0.00 | 0.00 | 0.00 | 96 | 1009.7 |
| 20260510065657 | 71 | 177 | 1.0 | 2.0 | 0.00 | 0.00 | 0.00 | 96 | 1009.7 |
| 20260510065157 | 71 | 163 | 1.0 | 2.0 | 0.00 | 0.00 | 0.00 | 96 | 1009.7 |
| 20260510064657 | 71 | 0 | 1.0 | 2.0 | 0.00 | 0.00 | 0.00 | 96 | 1009.7 |
| 20260510064154 | 71 | 104 | 1.0 | 2.0 | 0.00 | 0.00 | 0.00 | 96 | 1009.7 |
| 20260510063155 | 71 | 108 | 1.0 | 3.0 | 0.00 | 0.00 | 0.00 | 96 | 1009.5 |
| 20260510062654 | 71 | 94 | 1.0 | 3.0 | 0.00 | 0.00 | 0.00 | 96 | 1009.3 |
| 20260510062155 | 71 | 204 | 1.0 | 2.0 | 0.00 | 0.00 | 0.00 | 95 | 1009.3 |
| 20260510061655 | 71 | 198 | 1.0 | 2.0 | 0.00 | 0.00 | 0.00 | 95 | 1009.3 |
| 20260510061154 | 71 | 182 | 1.0 | 2.0 | 0.00 | 0.00 | 0.00 | 95 | 1009.4 |
| 20260510060654 | 71 | 0 | 1.0 | 2.0 | 0.00 | 0.00 | 0.00 | 95 | 1009.5 |
| 20260510060155 | 71 | 168 | 1.0 | 2.0 | 0.00 | 0.00 | 0.00 | 95 | 1009.5 |
| 20260510055654 | 71 | 192 | 1.0 | 3.0 | 0.00 | 0.00 | 0.00 | 95 | 1009.5 |
| 20260510055152 | 72 | 168 | 1.0 | 3.0 | 0.00 | 0.00 | 0.00 | 95 | 1009.5 |
| 20260510054651 | 72 | 225 | 1.0 | 3.0 | 0.00 | 0.00 | 0.00 | 95 | 1009.5 |
| 20260510053651 | 72 | 210 | 1.0 | 3.0 | 0.00 | 0.00 | 0.00 | 94 | 1009.5 |
| 20260510052649 | 73 | 162 | 1.0 | 3.0 | 0.00 | 0.00 | 0.00 | 93 | 1009.6 |
| 20260510052150 | 73 | 175 | 2.0 | 3.0 | 0.00 | 0.00 | 0.00 | 93 | 1009.5 |
| 20260510051649 | 73 | 177 | 1.0 | 3.0 | 0.00 | 0.00 | 0.00 | 92 | 1009.6 |
| 20260510051148 | 73 | 0 | 0.0 | 2.0 | 0.00 | 0.00 | 0.00 | 91 | 1009.7 |
| 20260510045649 | 74 | 0 | 0.0 | 2.0 | 0.00 | 0.00 | 0.61 | 90 | 1009.7 |
| 20260510045150 | 74 | 124 | 0.0 | 2.0 | 0.00 | 0.00 | 0.61 | 90 | 1009.7 |
| 20260510044650 | 74 | 108 | 0.0 | 2.0 | 0.00 | 0.00 | 0.61 | 89 | 1009.6 |
| 20260510044149 | 75 | 0 | 0.0 | 2.0 | 0.00 | 0.00 | 0.61 | 89 | 1009.6 |
| 20260510043649 | 75 | 0 | 0.0 | 3.0 | 0.00 | 0.00 | 0.61 | 89 | 1009.5 |
| 20260510043147 | 75 | 140 | 0.0 | 3.0 | 0.00 | 0.00 | 0.61 | 89 | 1009.4 |
| 20260510042647 | 75 | 157 | 0.0 | 3.0 | 0.00 | 0.00 | 0.61 | 89 | 1009.4 |
| 20260510041144 | 75 | 0 | 0.0 | 2.0 | 0.00 | 0.00 | 0.61 | 88 | 1009.2 |
| 20260510040144 | 75 | 0 | 1.0 | 3.0 | 0.00 | 0.00 | 0.61 | 87 | 1009.1 |
| 20260510035644 | 75 | 108 | 0.0 | 3.0 | 0.00 | 0.00 | 0.61 | 87 | 1009.1 |
| 20260510035144 | 76 | 86 | 0.0 | 2.0 | 0.00 | 0.00 | 0.61 | 87 | 1008.9 |
| 20260510034644 | 76 | 0 | 0.0 | 2.0 | 0.00 | 0.00 | 0.61 | 86 | 1008.8 |
| 20260510033644 | 76 | 0 | 1.0 | 3.0 | 0.00 | 0.00 | 0.61 | 85 | 1008.8 |
| 20260510033145 | 76 | 93 | 1.0 | 5.0 | 0.00 | 0.00 | 0.61 | 85 | 1008.8 |
| 20260510032641 | 76 | 106 | 2.0 | 5.0 | 0.00 | 0.00 | 0.61 | 85 | 1008.5 |
| 20260510032141 | 76 | 174 | 1.0 | 4.0 | 0.00 | 0.00 | 0.61 | 85 | 1008.4 |
| 20260510031642 | 77 | 200 | 0.0 | 3.0 | 0.00 | 0.00 | 0.61 | 84 | 1008.4 |
| 20260510031142 | 77 | 0 | 1.0 | 4.0 | 0.00 | 0.00 | 0.61 | 83 | 1008.4 |
| 20260510030641 | 77 | 0 | 1.0 | 4.0 | 0.00 | 0.00 | 0.61 | 82 | 1008.3 |
| 20260510030139 | 77 | 191 | 1.0 | 4.0 | 0.00 | 0.00 | 0.61 | 82 | 1008.2 |
| 20260510025638 | 77 | 0 | 1.0 | 3.0 | 0.00 | 0.00 | 0.61 | 81 | 1008.2 |
| 20260510025139 | 77 | 187 | 1.0 | 3.0 | 0.00 | 0.00 | 0.61 | 80 | 1008.2 |
| 20260510024639 | 78 | 0 | 1.0 | 5.0 | 0.00 | 0.00 | 0.61 | 80 | 1008.2 |
| 20260510024140 | 78 | 0 | 1.0 | 5.0 | 0.00 | 0.00 | 0.61 | 79 | 1008.2 |
| 20260510023640 | 78 | 131 | 1.0 | 4.0 | 0.00 | 0.00 | 0.61 | 78 | 1008.1 |
| 20260510022639 | 78 | 126 | 1.0 | 3.0 | 0.00 | 0.00 | 0.61 | 76 | 1008.0 |
| 20260510022139 | 78 | 122 | 1.0 | 3.0 | 0.00 | 0.00 | 0.61 | 76 | 1008.0 |
| 20260510021640 | 78 | 0 | 1.0 | 4.0 | 0.00 | 0.00 | 0.61 | 75 | 1007.9 |
| 20260510021142 | 79 | 191 | 1.0 | 4.0 | 0.00 | 0.00 | 0.61 | 75 | 1007.9 |
| 20260510020638 | 79 | 119 | 1.0 | 5.0 | 0.00 | 0.00 | 0.61 | 74 | 1007.9 |
| 20260510020153 | 79 | 335 | 2.0 | 5.0 | 0.00 | 0.00 | 0.61 | 73 | 1007.9 |
| 20260510015637 | 79 | 300 | 2.0 | 4.0 | 0.00 | 0.00 | 0.61 | 73 | 1007.8 |
| 20260510015137 | 80 | 146 | 1.0 | 4.0 | 0.00 | 0.00 | 0.61 | 73 | 1007.7 |
| 20260510014634 | 80 | 64 | 1.0 | 4.0 | 0.00 | 0.00 | 0.61 | 72 | 1007.6 |
| 20260510013635 | 80 | 86 | 1.0 | 6.0 | 0.00 | 0.00 | 0.61 | 71 | 1007.5 |
| 20260510013139 | 81 | 97 | 2.0 | 6.0 | 0.00 | 0.00 | 0.61 | 70 | 1007.4 |
| 20260510012635 | 81 | 126 | 2.0 | 6.0 | 0.00 | 0.00 | 0.61 | 70 | 1007.3 |
| 20260510012138 | 82 | 97 | 2.0 | 5.0 | 0.00 | 0.00 | 0.61 | 69 | 1007.3 |
| 20260510011635 | 82 | 158 | 2.0 | 5.0 | 0.00 | 0.00 | 0.61 | 67 | 1007.2 |
| 20260510011137 | 82 | 69 | 2.0 | 7.0 | 0.00 | 0.00 | 0.61 | 65 | 1007.3 |
| 20260510010634 | 83 | 126 | 3.0 | 8.0 | 0.00 | 0.00 | 0.61 | 64 | 1007.2 |
| 20260510010136 | 83 | 119 | 3.0 | 8.0 | 0.00 | 0.00 | 0.61 | 64 | 1007.1 |
| 20260510005635 | 83 | 155 | 2.0 | 7.0 | 0.00 | 0.00 | 0.61 | 65 | 1007.1 |
| 20260510005136 | 83 | 110 | 3.0 | 7.0 | 0.00 | 0.00 | 0.61 | 65 | 1007.1 |
| 20260510004131 | 84 | 96 | 3.0 | 7.0 | 0.00 | 0.00 | 0.61 | 64 | 1007.0 |
| 20260510003132 | 84 | 135 | 3.0 | 8.0 | 0.00 | 0.00 | 0.61 | 62 | 1007.0 |
| 20260510002632 | 84 | 126 | 4.0 | 9.0 | 0.00 | 0.00 | 0.61 | 62 | 1007.0 |
| 20260510001632 | 85 | 138 | 3.0 | 7.0 | 0.00 | 0.00 | 0.61 | 64 | 1007.0 |
| 20260510001132 | 85 | 142 | 3.0 | 7.0 | 0.00 | 0.00 | 0.61 | 66 | 1007.0 |
| 20260510000632 | 85 | 135 | 3.0 | 8.0 | 0.00 | 0.00 | 0.61 | 65 | 1007.0 |
| 20260510000132 | 85 | 218 | 4.0 | 9.0 | 0.00 | 0.00 | 0.61 | 65 | 1007.0 |
| 20260509235633 | 86 | 120 | 4.0 | 9.0 | 0.00 | 0.00 | 0.61 | 64 | 1006.9 |
| 20260509235134 | 86 | 78 | 4.0 | 11.0 | 0.00 | 0.00 | 0.61 | 64 | 1006.9 |
| 20260509234131 | 87 | 82 | 4.0 | 10.0 | 0.00 | 0.00 | 0.61 | 65 | 1006.9 |
| 20260509233630 | 87 | 114 | 4.0 | 10.0 | 0.00 | 0.00 | 0.61 | 62 | 1006.9 |
| 20260509233127 | 87 | 105 | 4.0 | 9.0 | 0.00 | 0.00 | 0.61 | 63 | 1006.9 |
| 20260509232126 | 87 | 127 | 4.0 | 10.0 | 0.00 | 0.00 | 0.61 | 63 | 1006.9 |
| 20260509231627 | 87 | 86 | 4.0 | 8.0 | 0.00 | 0.00 | 0.61 | 62 | 1006.8 |
| 20260509231128 | 87 | 130 | 4.0 | 9.0 | 0.00 | 0.00 | 0.61 | 62 | 1006.9 |
| 20260509230632 | 87 | 76 | 5.0 | 9.0 | 0.00 | 0.00 | 0.61 | 63 | 1006.8 |
| 20260509225127 | 87 | 88 | 5.0 | 10.0 | 0.00 | 0.00 | 0.61 | 62 | 1006.8 |
| 20260509224628 | 88 | 93 | 4.0 | 9.0 | 0.00 | 0.00 | 0.61 | 62 | 1006.9 |
| 20260509224125 | 88 | 51 | 4.0 | 8.0 | 0.00 | 0.00 | 0.61 | 62 | 1006.8 |
| 20260509223621 | 89 | 127 | 4.0 | 10.0 | 0.00 | 0.00 | 0.61 | 62 | 1006.7 |
| 20260509223122 | 89 | 113 | 2.0 | 10.0 | 0.00 | 0.00 | 0.61 | 61 | 1006.7 |
| 20260509222119 | 90 | 145 | 1.0 | 4.0 | 0.00 | 0.00 | 0.61 | 58 | 1006.7 |
| 20260509221618 | 91 | 51 | 2.0 | 5.0 | 0.00 | 0.00 | 0.61 | 55 | 1006.7 |
| 20260509221120 | 90 | 201 | 2.0 | 8.0 | 0.00 | 0.00 | 0.61 | 58 | 1006.7 |
| 20260509220619 | 91 | 212 | 3.0 | 8.0 | 0.00 | 0.00 | 0.61 | 56 | 1006.7 |
| 20260509220120 | 91 | 74 | 2.0 | 8.0 | 0.00 | 0.00 | 0.61 | 57 | 1006.9 |
| 20260509215619 | 91 | 183 | 1.0 | 5.0 | 0.00 | 0.00 | 0.61 | 55 | 1006.9 |
| 20260509215121 | 90 | 274 | 2.0 | 3.0 | 0.00 | 0.00 | 0.61 | 57 | 1006.9 |
| 20260509214619 | 89 | 113 | 2.0 | 4.0 | 0.00 | 0.00 | 0.61 | 59 | 1006.8 |
| 20260509214121 | 89 | 168 | 2.0 | 6.0 | 0.00 | 0.00 | 0.61 | 59 | 1006.9 |
| 20260509213619 | 89 | 141 | 2.0 | 6.0 | 0.00 | 0.00 | 0.61 | 60 | 1007.0 |
| 20260509213121 | 90 | 94 | 2.0 | 6.0 | 0.00 | 0.00 | 0.61 | 59 | 1006.9 |
| 20260509212620 | 89 | 172 | 2.0 | 7.0 | 0.00 | 0.00 | 0.61 | 60 | 1006.9 |
| 20260509212119 | 89 | 219 | 2.0 | 7.0 | 0.00 | 0.00 | 0.61 | 60 | 1007.0 |
| 20260509211116 | 90 | 258 | 1.0 | 5.0 | 0.00 | 0.00 | 0.61 | 60 | 1007.2 |
| 20260509210116 | 90 | 188 | 3.0 | 7.0 | 0.00 | 0.00 | 0.61 | 59 | 1007.2 |
| 20260509205614 | 89 | 165 | 3.0 | 7.0 | 0.00 | 0.00 | 0.61 | 59 | 1007.2 |
| 20260509205114 | 90 | 180 | 3.0 | 7.0 | 0.00 | 0.00 | 0.61 | 58 | 1007.2 |
| 20260509204614 | 90 | 203 | 2.0 | 7.0 | 0.00 | 0.00 | 0.61 | 60 | 1007.2 |
| 20260509204113 | 90 | 248 | 2.0 | 5.0 | 0.00 | 0.00 | 0.61 | 58 | 1007.2 |
| 20260509203614 | 90 | 45 | 2.0 | 5.0 | 0.00 | 0.00 | 0.61 | 56 | 1007.3 |
| 20260509203115 | 90 | 243 | 2.0 | 5.0 | 0.00 | 0.00 | 0.61 | 58 | 1007.3 |
| 20260509202614 | 90 | 269 | 2.0 | 5.0 | 0.00 | 0.00 | 0.61 | 60 | 1007.3 |
| 20260509202114 | 90 | 227 | 2.0 | 5.0 | 0.00 | 0.00 | 0.61 | 60 | 1007.4 |
| 20260509201114 | 90 | 147 | 2.0 | 4.0 | 0.00 | 0.00 | 0.61 | 61 | 1007.6 |
| 20260509200612 | 89 | 242 | 3.0 | 9.0 | 0.00 | 0.00 | 0.61 | 60 | 1007.5 |
| 20260509200112 | 89 | 227 | 3.0 | 9.0 | 0.00 | 0.00 | 0.61 | 61 | 1007.6 |
| 20260509195609 | 89 | 192 | 3.0 | 8.0 | 0.00 | 0.00 | 0.61 | 62 | 1007.6 |
| 20260509195109 | 89 | 171 | 2.0 | 6.0 | 0.00 | 0.00 | 0.61 | 59 | 1007.6 |
| 20260509194608 | 89 | 0 | 3.0 | 8.0 | 0.00 | 0.00 | 0.61 | 60 | 1007.7 |
| 20260509194106 | 89 | 207 | 3.0 | 8.0 | 0.00 | 0.00 | 0.61 | 61 | 1007.7 |
| 20260509193605 | 88 | 182 | 3.0 | 5.0 | 0.00 | 0.00 | 0.61 | 60 | 1007.7 |
| 20260509193106 | 88 | 237 | 3.0 | 8.0 | 0.00 | 0.00 | 0.61 | 61 | 1007.7 |
| 20260509192606 | 87 | 251 | 3.0 | 8.0 | 0.00 | 0.00 | 0.61 | 62 | 1007.7 |
| 20260509192106 | 87 | 240 | 3.0 | 8.0 | 0.00 | 0.00 | 0.61 | 62 | 1007.7 |
| 20260509191607 | 87 | 147 | 4.0 | 10.0 | 0.00 | 0.00 | 0.61 | 61 | 1007.8 |
| 20260509191106 | 86 | 225 | 3.0 | 10.0 | 0.00 | 0.00 | 0.61 | 63 | 1007.8 |
| 20260509190606 | 86 | 198 | 2.0 | 6.0 | 0.00 | 0.00 | 0.61 | 65 | 1007.8 |
| 20260509190106 | 86 | 259 | 3.0 | 9.0 | 0.00 | 0.00 | 0.61 | 65 | 1007.8 |
| 20260509185606 | 85 | 248 | 4.0 | 9.0 | 0.00 | 0.00 | 0.61 | 66 | 1007.9 |
| 20260509184103 | 86 | 235 | 3.0 | 7.0 | 0.00 | 0.00 | 0.61 | 64 | 1008.0 |
| 20260509183604 | 86 | 245 | 3.0 | 7.0 | 0.00 | 0.00 | 0.61 | 64 | 1008.0 |
| 20260509183103 | 86 | 229 | 2.0 | 9.0 | 0.00 | 0.00 | 0.61 | 63 | 1008.1 |
| 20260509182605 | 86 | 41 | 3.0 | 9.0 | 0.00 | 0.00 | 0.61 | 64 | 1008.2 |
| 20260509182104 | 86 | 228 | 3.0 | 7.0 | 0.00 | 0.00 | 0.61 | 66 | 1008.3 |
| 20260509181604 | 86 | 255 | 3.0 | 7.0 | 0.00 | 0.00 | 0.61 | 65 | 1008.3 |
| 20260509181104 | 86 | 263 | 2.0 | 6.0 | 0.00 | 0.00 | 0.61 | 62 | 1008.3 |
| 20260509180604 | 86 | 159 | 2.0 | 5.0 | 0.00 | 0.00 | 0.61 | 62 | 1008.4 |
| 20260509180104 | 86 | 63 | 1.0 | 4.0 | 0.00 | 0.00 | 0.61 | 64 | 1008.5 |
| 20260509175604 | 86 | 246 | 1.0 | 4.0 | 0.00 | 0.00 | 0.61 | 64 | 1008.7 |
| 20260509175104 | 85 | 135 | 2.0 | 5.0 | 0.00 | 0.00 | 0.61 | 62 | 1008.6 |
| 20260509174604 | 84 | 219 | 2.0 | 6.0 | 0.00 | 0.00 | 0.61 | 63 | 1008.6 |
| 20260509174104 | 84 | 277 | 2.0 | 6.0 | 0.00 | 0.00 | 0.61 | 65 | 1008.7 |
| 20260509173604 | 84 | 111 | 2.0 | 4.0 | 0.00 | 0.00 | 0.61 | 65 | 1008.6 |
| 20260509172101 | 83 | 186 | 2.0 | 4.0 | 0.00 | 0.00 | 0.61 | 69 | 1008.7 |
| 20260509171559 | 82 | 240 | 2.0 | 5.0 | 0.00 | 0.00 | 0.61 | 70 | 1008.8 |
| 20260509171059 | 83 | 269 | 2.0 | 6.0 | 0.00 | 0.00 | 0.61 | 69 | 1008.9 |
| 20260509170100 | 82 | 177 | 3.0 | 7.0 | 0.00 | 0.00 | 0.61 | 72 | 1009.1 |
| 20260509165059 | 81 | 315 | 2.0 | 6.0 | 0.00 | 0.00 | 0.61 | 70 | 1009.1 |
| 20260509163559 | 80 | 333 | 2.0 | 6.0 | 0.00 | 0.00 | 0.61 | 75 | 1009.3 |
| 20260509163059 | 79 | 310 | 3.0 | 6.0 | 0.00 | 0.00 | 0.61 | 74 | 1009.4 |
| 20260509161554 | 78 | 311 | 3.0 | 6.0 | 0.00 | 0.00 | 0.61 | 79 | 1009.6 |
| 20260509161050 | 78 | 321 | 3.0 | 6.0 | 0.00 | 0.00 | 0.61 | 79 | 1009.4 |
| 20260509160051 | 77 | 270 | 3.0 | 6.0 | 0.00 | 0.00 | 0.61 | 79 | 1009.6 |
| 20260509155551 | 77 | 309 | 2.0 | 5.0 | 0.00 | 0.00 | 0.61 | 79 | 1009.5 |
| 20260509155051 | 76 | 0 | 2.0 | 4.0 | 0.00 | 0.00 | 0.61 | 83 | 1009.4 |
| 20260509154548 | 76 | 270 | 2.0 | 4.0 | 0.00 | 0.00 | 0.61 | 83 | 1009.3 |
| 20260509154048 | 75 | 298 | 2.0 | 4.0 | 0.00 | 0.00 | 0.61 | 84 | 1009.5 |
| 20260509153548 | 75 | 253 | 2.0 | 3.0 | 0.00 | 0.00 | 0.61 | 87 | 1009.6 |
| 20260509153045 | 74 | 301 | 2.0 | 4.0 | 0.00 | 0.00 | 0.61 | 88 | 1009.6 |
| 20260509152547 | 74 | 274 | 2.0 | 4.0 | 0.00 | 0.00 | 0.61 | 90 | 1009.5 |
| 20260509152050 | 73 | 304 | 1.0 | 2.0 | 0.00 | 0.00 | 0.61 | 93 | 1009.2 |
| 20260509151547 | 73 | 317 | 1.0 | 3.0 | 0.00 | 0.00 | 0.61 | 95 | 1008.9 |
| 20260509151044 | 72 | 316 | 1.0 | 3.0 | 0.00 | 0.00 | 0.61 | 95 | 1008.8 |
| 20260509150544 | 72 | 316 | 1.0 | 2.0 | 0.00 | 0.00 | 0.61 | 95 | 1008.7 |
| 20260509150044 | 72 | 316 | 1.0 | 2.0 | 0.00 | 0.00 | 0.61 | 96 | 1008.7 |
| 20260509145544 | 71 | 316 | 1.0 | 2.0 | 0.00 | 0.00 | 0.61 | 96 | 1008.8 |
| 20260509145044 | 71 | 316 | 1.0 | 2.0 | 0.00 | 0.00 | 0.61 | 96 | 1008.8 |
| 20260509144544 | 71 | 316 | 1.0 | 2.0 | 0.00 | 0.00 | 0.61 | 96 | 1008.9 |
| 20260509143544 | 71 | 324 | 2.0 | 2.0 | 0.00 | 0.00 | 0.61 | 96 | 1009.1 |
| 20260509143044 | 71 | 315 | 2.0 | 2.0 | 0.00 | 0.00 | 0.61 | 95 | 1009.2 |
| 20260509142544 | 71 | 319 | 2.0 | 2.0 | 0.00 | 0.00 | 0.61 | 95 | 1009.5 |
| 20260509141545 | 71 | 329 | 2.0 | 5.0 | 0.00 | 0.00 | 0.61 | 95 | 1009.3 |
| 20260509141044 | 71 | 312 | 3.0 | 5.0 | 0.00 | 0.00 | 0.61 | 94 | 1008.9 |
| 20260509140534 | 71 | 119 | 3.0 | 5.0 | 0.00 | 0.00 | 0.61 | 95 | 1008.5 |
| 20260509135531 | 71 | 145 | 4.0 | 5.0 | 0.00 | 0.00 | 0.61 | 95 | 1007.9 |
| 20260509135022 | 70 | 128 | 4.0 | 5.0 | 0.00 | 0.00 | 0.61 | 95 | 1008.3 |
| 20260509134526 | 70 | 140 | 4.0 | 5.0 | 0.00 | 0.00 | 0.61 | 95 | 1008.5 |
| 20260509134018 | 70 | 146 | 4.0 | 5.0 | 0.00 | 0.00 | 0.61 | 95 | 1008.6 |
| 20260509133526 | 70 | 131 | 4.0 | 5.0 | 0.00 | 0.00 | 0.61 | 95 | 1009.0 |
| 20260509133018 | 70 | 323 | 4.0 | 5.0 | 0.00 | 0.00 | 0.61 | 95 | 1009.1 |
| 20260509132526 | 70 | 144 | 4.0 | 5.0 | 0.00 | 0.00 | 0.61 | 95 | 1009.1 |
| 20260509132019 | 70 | 132 | 4.0 | 5.0 | 0.00 | 0.00 | 0.61 | 94 | 1008.0 |
| 20260509131539 | 70 | 138 | 4.0 | 5.0 | 0.00 | 0.00 | 0.61 | 95 | 1008.0 |
| 20260509130523 | 70 | 129 | 4.0 | 4.0 | 0.00 | 0.00 | 0.61 | 93 | 1007.6 |
| 20260509130035 | 70 | 135 | 4.0 | 5.0 | 0.10 | 0.61 | 0.61 | 94 | 1007.6 |
| 20260509125534 | 70 | 133 | 4.0 | 5.0 | 0.12 | 0.61 | 0.61 | 93 | 1007.6 |
| 20260509125032 | 70 | 147 | 4.0 | 8.0 | 0.13 | 0.61 | 0.61 | 93 | 1008.0 |
| 20260509124530 | 70 | 129 | 5.0 | 10.0 | 0.14 | 0.61 | 0.61 | 93 | 1007.5 |
| 20260509124029 | 70 | 124 | 6.0 | 10.0 | 0.16 | 0.61 | 0.61 | 94 | 1007.5 |
| 20260509123531 | 69 | 132 | 6.0 | 13.0 | 0.17 | 0.61 | 0.61 | 95 | 1006.8 |
| 20260509123029 | 69 | 132 | 8.0 | 13.0 | 0.17 | 0.61 | 0.61 | 95 | 1006.3 |
| 20260509122530 | 69 | 133 | 8.0 | 13.0 | 0.19 | 0.60 | 0.61 | 95 | 1006.0 |
| 20260509122030 | 70 | 134 | 7.0 | 10.0 | 0.20 | 0.59 | 0.59 | 96 | 1006.1 |
| 20260509121528 | 71 | 132 | 8.0 | 10.0 | 0.20 | 0.57 | 0.57 | 96 | 1007.3 |
| 20260509120527 | 72 | 131 | 7.0 | 11.0 | 0.16 | 0.53 | 0.53 | 97 | 1008.1 |
| 20260509115024 | 70 | 113 | 6.0 | 10.0 | 0.11 | 0.48 | 0.48 | 97 | 1008.1 |
| 20260509114528 | 70 | 124 | 5.0 | 8.0 | 0.11 | 0.47 | 0.47 | 96 | 1008.7 |
| 20260509113528 | 71 | 140 | 5.0 | 7.0 | 0.12 | 0.44 | 0.44 | 96 | 1009.3 |
| 20260509112528 | 71 | 161 | 6.0 | 7.0 | 0.13 | 0.41 | 0.41 | 95 | 1009.5 |
| 20260509112023 | 71 | 146 | 5.0 | 7.0 | 0.14 | 0.39 | 0.39 | 95 | 1009.5 |
| 20260509111528 | 71 | 151 | 5.0 | 8.0 | 0.15 | 0.38 | 0.38 | 96 | 1009.0 |
| 20260509111025 | 71 | 124 | 5.0 | 8.0 | 0.17 | 0.37 | 0.37 | 96 | 1008.9 |
| 20260509110529 | 72 | 143 | 4.0 | 8.0 | 0.19 | 0.37 | 0.37 | 96 | 1009.0 |